OK2DDS-5 Weather Reports


time (UTC)temp
C
wind
direction
speed
KPH
gust
KPH
rain 1hr
cm
rain 24hr
cm
rain mn
cm
humidity
%
barometer
mb
20260507223506 16 0 0.0 30.6 0.00 0.00 0.00 1007.0
20260507222006 16 0 0.0 35.4 0.00 0.00 0.00 1007.0
20260507220506 17 0 1.6 24.1 0.00 0.00 0.00 1007.0
20260507215006 17 0 1.6 62.8 0.00 0.00 0.00 1007.0
20260507213506 17 0 1.6 29.0 0.00 0.00 0.00 1007.0
20260507212006 17 0 0.0 25.7 0.00 0.00 0.00 1006.0
20260507210506 17 0 0.0 17.7 0.00 0.00 0.00 1006.0
20260507205006 17 0 0.0 24.1 0.00 0.00 0.00 1006.0
20260507203506 18 0 0.0 35.4 0.00 0.00 0.00 1006.0
20260507202006 18 0 0.0 22.5 0.00 0.00 0.00 1006.0
20260507200506 18 0 0.0 19.3 0.00 0.00 0.00 1006.0
20260507195006 18 0 0.0 14.5 0.00 0.00 0.00 1006.0
20260507193506 18 0 0.0 14.5 0.00 0.00 0.00 1006.0
20260507192006 18 0 0.0 20.9 0.00 0.00 0.00 1005.0
20260507190506 19 0 0.0 20.9 0.00 0.00 0.00 1005.0
20260507185006 19 0 0.0 11.3 0.00 0.00 0.00 1005.0
20260507183506 20 0 0.0 41.8 0.00 0.00 0.00 1005.0
20260507182007 20 0 0.0 17.7 0.00 0.00 0.00 1004.0
20260507180506 21 0 0.0 9.7 0.00 0.00 0.00 1004.0
20260507175006 21 0 0.0 19.3 0.00 0.00 0.00 1004.0
20260507173506 22 0 1.6 29.0 0.00 0.00 0.00 1004.0
20260507172006 22 0 1.6 16.1 0.00 0.00 0.00 1004.0
20260507170506 23 0 1.6 9.7 0.00 0.00 0.00 1004.0
20260507165006 24 0 0.0 29.0 0.00 0.00 0.00 1003.0
20260507163506 24 0 0.0 14.5 0.00 0.00 0.00 1003.0
20260507162006 24 0 0.0 16.1 0.00 0.00 0.00 1003.0
20260507160506 27 0 0.0 35.4 0.00 0.00 0.00 1003.0
20260507155006 26 0 1.6 22.5 0.00 0.00 0.00 1003.0
20260507153506 25 0 1.6 24.1 0.00 0.00 0.00 1003.0
20260507152006 23 0 1.6 17.7 0.00 0.00 0.00 1003.0
20260507150506 25 0 1.6 12.9 0.00 0.00 0.00 1003.0
20260507145006 27 0 1.6 11.3 0.00 0.00 0.00 1003.0
20260507143506 28 0 1.6 12.9 0.00 0.00 0.00 1003.0
20260507142006 28 0 1.6 9.7 0.00 0.00 0.00 1003.0
20260507140506 28 0 1.6 17.7 0.00 0.00 0.00 1003.0
20260507135006 27 0 1.6 19.3 0.00 0.00 0.00 1003.0
20260507133506 27 0 1.6 27.4 0.00 0.00 0.00 1003.0
20260507132006 28 0 1.6 29.0 0.00 0.00 0.00 1003.0
20260507130506 27 0 1.6 19.3 0.00 0.00 0.00 1003.0
20260507125006 28 0 1.6 14.5 0.00 0.00 0.00 1003.0
20260507123506 28 0 1.6 14.5 0.00 0.00 0.00 1003.0
20260507122006 26 0 1.6 12.9 0.00 0.00 0.00 1004.0
20260507120506 24 0 1.6 17.7 0.00 0.00 0.00 1004.0
20260507115006 23 0 1.6 29.0 0.00 0.00 0.00 1004.0
20260507113506 24 0 1.6 12.9 0.00 0.00 0.00 1004.0
20260507112006 24 0 1.6 11.3 0.00 0.00 0.00 1004.0
20260507110506 25 0 1.6 45.1 0.00 0.00 0.00 1004.0
20260507105006 25 0 1.6 20.9 0.00 0.00 0.00 1004.0
20260507103506 25 0 1.6 17.7 0.00 0.00 0.00 1004.0
20260507102007 25 0 0.0 11.3 0.00 0.00 0.00 1004.0
20260507100506 23 0 1.6 16.1 0.00 0.00 0.00 1004.0
20260507095006 23 0 0.0 16.1 0.00 0.00 0.00 1004.0
20260507093506 22 0 1.6 16.1 0.00 0.00 0.00 1004.0
20260507092006 22 0 1.6 12.9 0.00 0.00 0.00 1004.0
20260507090506 21 0 1.6 16.1 0.00 0.00 0.00 1004.0
20260507085006 21 0 1.6 14.5 0.00 0.00 0.00 1004.0
20260507083506 20 0 1.6 11.3 0.00 0.00 0.00 1004.0
20260507082006 20 0 1.6 14.5 0.00 0.00 0.00 1004.0
20260507080506 20 0 1.6 22.5 0.00 0.00 0.00 1004.0
20260507075006 20 0 1.6 14.5 0.00 0.00 0.00 1004.0
20260507073506 19 0 1.6 19.3 0.00 0.00 0.00 1004.0
20260507072006 18 0 1.6 20.9 0.00 0.00 0.00 1004.0
20260507070506 18 0 1.6 16.1 0.00 0.00 0.00 1004.0
20260507065006 18 0 1.6 27.4 0.00 0.00 0.00 1004.0
20260507063506 17 0 1.6 14.5 0.00 0.00 0.00 1003.0
20260507062007 17 0 1.6 29.0 0.00 0.00 0.00 1003.0
20260507060506 17 0 1.6 29.0 0.00 0.00 0.00 1003.0
20260507055006 16 0 1.6 37.0 0.00 0.00 0.00 1003.0
20260507053506 16 0 1.6 14.5 0.00 0.00 0.00 1003.0
20260507052006 16 0 1.6 35.4 0.00 0.00 0.00 1003.0
20260507050506 16 0 0.0 16.1 0.00 0.00 0.00 1003.0
20260507045006 16 0 0.0 20.9 0.00 0.00 0.00 1002.0
20260507043506 15 0 1.6 25.7 0.00 0.00 0.00 1002.0
20260507042006 15 0 0.0 14.5 0.00 0.00 0.00 1002.0
20260507040506 16 0 1.6 30.6 0.00 0.00 0.00 1002.0
20260507035139 16 0 1.6 20.9 0.00 0.00 0.00 1001.0
20260507035006 16 0 1.6 20.9 0.00 0.00 0.00 1001.0
20260507033506 16 0 1.6 27.4 0.00 0.00 0.00 1001.0
20260507032006 15 0 1.6 24.1 0.00 0.00 0.00 1001.0
20260507030506 15 0 1.6 46.7 0.00 0.00 0.00 1001.0
20260507025006 15 0 1.6 43.5 0.00 0.00 0.00 1001.0
20260507023506 15 0 0.0 17.7 0.00 0.00 0.00 1001.0
20260507022006 16 0 1.6 33.8 0.00 0.00 0.00 1001.0
20260507020506 16 0 1.6 27.4 0.00 0.00 0.00 1001.0
20260507015006 16 0 3.2 19.3 0.00 0.00 0.00 1001.0
20260507013506 16 0 1.6 17.7 0.00 0.00 0.00 1001.0
20260507012006 16 0 3.2 24.1 0.00 0.00 0.00 1000.0
20260507010506 16 0 3.2 22.5 0.00 0.00 0.00 1000.0
20260507005006 16 0 3.2 29.0 0.00 0.00 0.00 1000.0
20260507003506 16 0 3.2 27.4 0.00 0.00 0.00 999.0
20260507002006 16 0 3.2 17.7 0.00 0.00 0.00 999.0
20260507000506 17 0 3.2 22.5 0.00 0.00 0.00 999.0
20260506235006 17 0 1.6 25.7 0.00 0.00 0.00 999.0
20260506233506 17 0 0.0 16.1 0.00 0.00 0.00 999.0
20260506232006 17 0 0.0 35.4 0.00 0.00 0.00 998.0
20260506230506 17 0 0.0 19.3 0.00 0.00 0.00 998.0
20260506225006 17 0 0.0 22.5 0.00 0.00 0.00 998.0